| time (UTC) | temp F | wind direction | speed MPH | gust MPH | rain 1hr in | rain 24hr in | rain mn in | humidity % | barometer mb |
| 20260503021026 | 51 | 143 | 0.0 | 1.0 | 0.00 | 0.00 | 0.00 | 69 | 1014.6 |
| 20260503020030 | 51 | 143 | 0.0 | 1.0 | 0.00 | 0.00 | 0.00 | 70 | 1014.6 |
| 20260503015031 | 51 | 143 | 0.0 | 0.0 | 0.00 | 0.00 | 0.00 | 70 | 1014.7 |
| 20260503014029 | 50 | 143 | 0.0 | 0.0 | 0.00 | 0.00 | 0.00 | 72 | 1014.8 |
| 20260503013029 | 49 | 143 | 0.0 | 0.0 | 0.00 | 0.00 | 0.00 | 73 | 1014.7 |
| 20260503012036 | 49 | 143 | 0.0 | 0.0 | 0.00 | 0.00 | 0.00 | 73 | 1014.8 |
| 20260503011034 | 49 | 143 | 0.0 | 0.0 | 0.00 | 0.00 | 0.00 | 74 | 1014.8 |
| 20260503005036 | 49 | 143 | 0.0 | 0.0 | 0.00 | 0.00 | 0.00 | 73 | 1014.9 |
| 20260503004036 | 49 | 143 | 0.0 | 0.0 | 0.00 | 0.00 | 0.00 | 73 | 1014.9 |
| 20260503003040 | 50 | 143 | 0.0 | 0.0 | 0.00 | 0.00 | 0.00 | 73 | 1015.0 |
| 20260503002023 | 50 | 143 | 0.0 | 0.0 | 0.00 | 0.00 | 0.00 | 73 | 1015.1 |
| 20260503001022 | 50 | 143 | 0.0 | 0.0 | 0.00 | 0.00 | 0.00 | 73 | 1015.0 |
| 20260503000041 | 49 | 143 | 0.0 | 0.0 | 0.00 | 0.00 | 0.00 | 72 | 1015.1 |
| 20260502235025 | 49 | 143 | 0.0 | 0.0 | 0.00 | 0.00 | 0.00 | 73 | 1015.2 |
| 20260502234025 | 49 | 143 | 0.0 | 0.0 | 0.00 | 0.00 | 0.00 | 72 | 1015.1 |
| 20260502233026 | 50 | 143 | 0.0 | 0.0 | 0.00 | 0.00 | 0.00 | 70 | 1015.2 |
| 20260502232026 | 50 | 143 | 0.0 | 0.0 | 0.00 | 0.00 | 0.00 | 71 | 1015.3 |
| 20260502231031 | 50 | 143 | 0.0 | 0.0 | 0.00 | 0.00 | 0.00 | 70 | 1015.3 |
| 20260502230031 | 51 | 143 | 0.0 | 0.0 | 0.00 | 0.00 | 0.00 | 70 | 1015.4 |
| 20260502225030 | 51 | 143 | 0.0 | 0.0 | 0.00 | 0.00 | 0.00 | 67 | 1015.5 |
| 20260502224029 | 52 | 143 | 0.0 | 0.0 | 0.00 | 0.00 | 0.00 | 67 | 1015.5 |
| 20260502223033 | 52 | 143 | 0.0 | 0.0 | 0.00 | 0.00 | 0.00 | 65 | 1015.5 |
| 20260502222034 | 52 | 143 | 0.0 | 0.0 | 0.00 | 0.00 | 0.00 | 65 | 1015.5 |
| 20260502221033 | 53 | 143 | 0.0 | 0.0 | 0.00 | 0.00 | 0.00 | 64 | 1015.5 |
| 20260502220034 | 53 | 143 | 0.0 | 0.0 | 0.00 | 0.00 | 0.00 | 63 | 1015.5 |
| 20260502215036 | 54 | 143 | 0.0 | 0.0 | 0.00 | 0.00 | 0.00 | 63 | 1015.5 |
| 20260502214035 | 54 | 143 | 0.0 | 0.0 | 0.00 | 0.00 | 0.00 | 62 | 1015.5 |
| 20260502213033 | 55 | 143 | 0.0 | 0.0 | 0.00 | 0.00 | 0.00 | 60 | 1015.6 |
| 20260502212035 | 56 | 143 | 0.0 | 0.0 | 0.00 | 0.00 | 0.00 | 60 | 1015.6 |
| 20260502211033 | 57 | 143 | 0.0 | 0.0 | 0.00 | 0.00 | 0.00 | 58 | 1015.7 |
| 20260502210037 | 57 | 143 | 0.0 | 0.0 | 0.00 | 0.00 | 0.00 | 57 | 1015.6 |
| 20260502205019 | 58 | 143 | 0.0 | 0.0 | 0.00 | 0.00 | 0.00 | 56 | 1015.8 |
| 20260502204018 | 59 | 143 | 0.0 | 0.0 | 0.00 | 0.00 | 0.00 | 54 | 1015.8 |
| 20260502203019 | 60 | 143 | 0.0 | 0.0 | 0.00 | 0.00 | 0.00 | 54 | 1015.8 |
| 20260502202024 | 60 | 143 | 0.0 | 0.0 | 0.00 | 0.00 | 0.00 | 53 | 1015.9 |
| 20260502201022 | 62 | 143 | 0.0 | 0.0 | 0.00 | 0.00 | 0.00 | 51 | 1015.9 |
| 20260502200022 | 63 | 143 | 0.0 | 0.0 | 0.00 | 0.00 | 0.00 | 50 | 1015.9 |
| 20260502195024 | 63 | 143 | 0.0 | 1.0 | 0.00 | 0.00 | 0.00 | 48 | 1015.9 |
| 20260502194026 | 63 | 143 | 0.0 | 1.0 | 0.00 | 0.00 | 0.00 | 48 | 1016.0 |
| 20260502193027 | 63 | 143 | 0.0 | 1.0 | 0.00 | 0.00 | 0.00 | 49 | 1015.9 |
| 20260502192028 | 63 | 143 | 0.0 | 1.0 | 0.00 | 0.00 | 0.00 | 51 | 1015.9 |
| 20260502191028 | 63 | 143 | 0.0 | 1.0 | 0.00 | 0.00 | 0.00 | 50 | 1015.9 |
| 20260502190028 | 64 | 143 | 0.0 | 1.0 | 0.00 | 0.00 | 0.00 | 48 | 1016.0 |
| 20260502185033 | 66 | 143 | 0.0 | 0.0 | 0.00 | 0.00 | 0.00 | 47 | 1015.9 |
| 20260502184032 | 67 | 143 | 0.0 | 0.0 | 0.00 | 0.00 | 0.00 | 45 | 1015.8 |
| 20260502183032 | 68 | 143 | 0.0 | 0.0 | 0.00 | 0.00 | 0.00 | 44 | 1015.8 |
| 20260502182032 | 69 | 143 | 0.0 | 0.0 | 0.00 | 0.00 | 0.00 | 42 | 1015.8 |
| 20260502181035 | 71 | 143 | 0.0 | 0.0 | 0.00 | 0.00 | 0.00 | 39 | 1015.9 |
| 20260502164021 | 78 | 142 | 1.0 | 6.0 | 0.00 | 0.00 | 0.00 | 29 | 1016.1 |
| 20260502163022 | 78 | 142 | 2.0 | 5.0 | 0.00 | 0.00 | 0.00 | 28 | 1016.2 |
| 20260502162023 | 78 | 142 | 3.0 | 7.0 | 0.00 | 0.00 | 0.00 | 28 | 1016.3 |
| 20260502161021 | 79 | 142 | 1.0 | 6.0 | 0.00 | 0.00 | 0.00 | 28 | 1016.3 |
| 20260502152033 | 79 | 142 | 4.0 | 7.0 | 0.00 | 0.00 | 0.00 | 27 | 1017.0 |
| 20260502151032 | 79 | 142 | 2.0 | 13.0 | 0.00 | 0.00 | 0.00 | 27 | 1017.1 |
| 20260502123026 | 79 | 145 | 2.0 | 6.0 | 0.00 | 0.00 | 0.00 | 26 | 1018.8 |
| 20260502122026 | 79 | 145 | 1.0 | 6.0 | 0.00 | 0.00 | 0.00 | 26 | 1018.9 |
| 20260502121026 | 80 | 145 | 1.0 | 5.0 | 0.00 | 0.00 | 0.00 | 26 | 1019.1 |
| 20260502115029 | 80 | 145 | 2.0 | 10.0 | 0.00 | 0.00 | 0.00 | 27 | 1019.3 |
| 20260502114029 | 79 | 145 | 1.0 | 9.0 | 0.00 | 0.00 | 0.00 | 26 | 1019.4 |
| 20260502113025 | 80 | 144 | 2.0 | 6.0 | 0.00 | 0.00 | 0.00 | 26 | 1019.5 |
| 20260502112026 | 79 | 144 | 0.0 | 8.0 | 0.00 | 0.00 | 0.00 | 28 | 1019.7 |
| 20260502111025 | 79 | 144 | 3.0 | 6.0 | 0.00 | 0.00 | 0.00 | 27 | 1019.8 |
| 20260502110030 | 80 | 144 | 1.0 | 8.0 | 0.00 | 0.00 | 0.00 | 28 | 1019.8 |
| 20260502105029 | 81 | 144 | 1.0 | 3.0 | 0.00 | 0.00 | 0.00 | 27 | 1019.9 |
| 20260502104027 | 77 | 144 | 0.0 | 4.0 | 0.00 | 0.00 | 0.00 | 30 | 1020.2 |
| 20260502103025 | 76 | 144 | 3.0 | 6.0 | 0.00 | 0.00 | 0.00 | 29 | 1020.4 |
| 20260502102029 | 76 | 144 | 1.0 | 8.0 | 0.00 | 0.00 | 0.00 | 30 | 1020.4 |
| 20260502101028 | 75 | 144 | 1.0 | 6.0 | 0.00 | 0.00 | 0.00 | 31 | 1020.5 |
| 20260502091032 | 73 | 142 | 1.0 | 7.0 | 0.00 | 0.00 | 0.00 | 34 | 1021.1 |
| 20260502071030 | 65 | 142 | 0.0 | 1.0 | 0.00 | 0.00 | 0.00 | 51 | 1021.5 |
| 20260502070031 | 64 | 142 | 0.0 | 2.0 | 0.00 | 0.00 | 0.00 | 52 | 1021.5 |
| 20260502065036 | 62 | 142 | 0.0 | 1.0 | 0.00 | 0.00 | 0.00 | 56 | 1021.6 |
| 20260502064035 | 60 | 142 | 0.0 | 2.0 | 0.00 | 0.00 | 0.00 | 60 | 1021.6 |
| 20260502063035 | 58 | 142 | 0.0 | 2.0 | 0.00 | 0.00 | 0.00 | 63 | 1021.6 |
| 20260502062035 | 56 | 142 | 0.0 | 2.0 | 0.00 | 0.00 | 0.00 | 65 | 1021.6 |
| 20260502061033 | 54 | 142 | 0.0 | 2.0 | 0.00 | 0.00 | 0.00 | 68 | 1021.6 |
| 20260502060018 | 52 | 142 | 0.0 | 2.0 | 0.00 | 0.00 | 0.00 | 71 | 1021.6 |
| 20260502055019 | 51 | 142 | 0.0 | 1.0 | 0.00 | 0.00 | 0.00 | 72 | 1021.6 |
| 20260502054037 | 50 | 142 | 0.0 | 1.0 | 0.00 | 0.00 | 0.00 | 73 | 1021.6 |
| 20260502053017 | 49 | 142 | 0.0 | 1.0 | 0.00 | 0.00 | 0.00 | 75 | 1021.6 |
| 20260502052022 | 48 | 142 | 0.0 | 1.0 | 0.00 | 0.00 | 0.00 | 77 | 1021.5 |
| 20260502051023 | 47 | 142 | 0.0 | 1.0 | 0.00 | 0.00 | 0.00 | 81 | 1021.5 |
| 20260502050024 | 45 | 142 | 0.0 | 0.0 | 0.00 | 0.00 | 0.00 | 86 | 1021.5 |
| 20260502045025 | 44 | 142 | 0.0 | 0.0 | 0.00 | 0.00 | 0.00 | 88 | 1021.6 |
| 20260502044028 | 43 | 142 | 0.0 | 0.0 | 0.00 | 0.00 | 0.00 | 89 | 1021.5 |
| 20260502043029 | 42 | 142 | 0.0 | 0.0 | 0.00 | 0.00 | 0.00 | 89 | 1021.5 |
| 20260502042028 | 41 | 143 | 0.0 | 0.0 | 0.00 | 0.00 | 0.00 | 89 | 1021.4 |
| 20260502041028 | 40 | 143 | 0.0 | 0.0 | 0.00 | 0.00 | 0.00 | 89 | 1021.4 |
| 20260502040032 | 39 | 143 | 0.0 | 0.0 | 0.00 | 0.00 | 0.00 | 89 | 1021.5 |
| 20260502035034 | 39 | 143 | 0.0 | 0.0 | 0.00 | 0.00 | 0.00 | 89 | 1021.5 |
| 20260502034034 | 39 | 143 | 0.0 | 0.0 | 0.00 | 0.00 | 0.00 | 89 | 1021.4 |
| 20260502033034 | 39 | 143 | 0.0 | 0.0 | 0.00 | 0.00 | 0.00 | 88 | 1021.5 |
| 20260502032020 | 38 | 143 | 0.0 | 0.0 | 0.00 | 0.00 | 0.00 | 88 | 1021.6 |
| 20260502031019 | 38 | 143 | 0.0 | 0.0 | 0.00 | 0.00 | 0.00 | 87 | 1021.6 |
| 20260502030019 | 39 | 143 | 0.0 | 0.0 | 0.00 | 0.00 | 0.00 | 87 | 1021.7 |
| 20260502025020 | 39 | 143 | 0.0 | 0.0 | 0.00 | 0.00 | 0.00 | 86 | 1021.7 |
| 20260502024018 | 40 | 143 | 0.0 | 0.0 | 0.00 | 0.00 | 0.00 | 86 | 1021.7 |
| 20260502023023 | 40 | 143 | 0.0 | 0.0 | 0.00 | 0.00 | 0.00 | 86 | 1021.7 |
| 20260502022024 | 40 | 143 | 0.0 | 0.0 | 0.00 | 0.00 | 0.00 | 87 | 1021.7 |